Stündliche Wetter Holopenichi

Heute, 15 Juni, Dienstag

Zeit Temperatur Niederschläge Wind Luftdruck Luftfeuchtigkeit
00:00 +15°C° 0 mm 1 m/S 750 mmHg 94%
01:00 +15°C° 0 mm 1 m/S 750 mmHg 94%
02:00 +14°C° 0 mm 1 m/S 750 mmHg 95%
03:00 +14°C° 0 mm 1 m/S 750 mmHg 95%
04:00 +15°C° 0 mm 1 m/S 750 mmHg 95%
05:00 +15°C° 0 mm 1 m/S 750 mmHg 95%
06:00 +17°C° 0 mm 2 m/S 750 mmHg 88%
07:00 +18°C° 0 mm 2 m/S 750 mmHg 81%
08:00 +20°C° 0 mm 2 m/S 750 mmHg 74%
09:00 +21°C° 0 mm 2 m/S 750 mmHg 69%
10:00 +23°C° 0 mm 2 m/S 750 mmHg 63%
11:00 +25°C° 0 mm 3 m/S 750 mmHg 57%
12:00 +25°C° 0 mm 3 m/S 749 mmHg 57%
13:00 +25°C° 0 mm 3 m/S 749 mmHg 58%
14:00 +25°C° 0 mm 3 m/S 749 mmHg 58%
15:00 +25°C° 0 mm 3 m/S 749 mmHg 59%
16:00 +24°C° 0 mm 3 m/S 749 mmHg 60%
17:00 +24°C° 0 mm 2 m/S 748 mmHg 61%
18:00 +23°C° 0 mm 2 m/S 748 mmHg 67%
19:00 +20°C° 0 mm 2 m/S 748 mmHg 72%
20:00 +19°C° 0 mm 2 m/S 748 mmHg 78%
21:00 +17°C° 0 mm 2 m/S 748 mmHg 80%
22:00 +16°C° 0 mm 2 m/S 748 mmHg 81%
23:00 +15°C° 0 mm 2 m/S 749 mmHg 82%

Morgen, 16 Juni, Mittwoch

Zeit Temperatur Niederschläge Wind Luftdruck Luftfeuchtigkeit
00:00 +15°C° 0 mm 2 m/S 749 mmHg 86%
01:00 +15°C° 0 mm 2 m/S 749 mmHg 89%
02:00 +14°C° 0 mm 2 m/S 749 mmHg 93%
03:00 +15°C° 0 mm 2 m/S 749 mmHg 93%
04:00 +15°C° 0 mm 2 m/S 749 mmHg 93%
05:00 +15°C° 0 mm 2 m/S 749 mmHg 94%
06:00 +17°C° 0 mm 2 m/S 750 mmHg 88%
07:00 +18°C° 0 mm 2 m/S 750 mmHg 83%
08:00 +20°C° 0 mm 3 m/S 750 mmHg 77%
09:00 +21°C° 0 mm 3 m/S 750 mmHg 73%
10:00 +22°C° 0 mm 3 m/S 750 mmHg 70%
11:00 +24°C° 0 mm 3 m/S 751 mmHg 66%
12:00 +24°C° 0.2 mm 3 m/S 750 mmHg 63%
13:00 +25°C° 0.2 mm 3 m/S 750 mmHg 60%
14:00 +25°C° 0.2 mm 3 m/S 750 mmHg 58%
15:00 +25°C° 0 mm 3 m/S 751 mmHg 57%
16:00 +25°C° 0 mm 3 m/S 751 mmHg 56%
17:00 +25°C° 0 mm 3 m/S 751 mmHg 56%
18:00 +22°C° 0 mm 3 m/S 751 mmHg 63%
19:00 +21°C° 0 mm 3 m/S 751 mmHg 70%
20:00 +19°C° 0 mm 3 m/S 752 mmHg 78%
21:00 +18°C° 0 mm 3 m/S 752 mmHg 81%
22:00 +17°C° 0 mm 3 m/S 752 mmHg 84%
23:00 +16°C° 0 mm 3 m/S 753 mmHg 87%

übermorgen, 17 Juni, Donnerstag

Zeit Temperatur Niederschläge Wind Luftdruck Luftfeuchtigkeit
00:00 +14°C° 0 mm 3 m/S 753 mmHg 86%
01:00 +13°C° 0 mm 3 m/S 753 mmHg 85%
02:00 +13°C° 0 mm 3 m/S 753 mmHg 85%
03:00 +14°C° 0 mm 2 m/S 754 mmHg 85%
04:00 +14°C° 0 mm 2 m/S 754 mmHg 84%
05:00 +14°C° 0 mm 2 m/S 754 mmHg 84%
06:00 +16°C° 0 mm 2 m/S 754 mmHg 77%
07:00 +18°C° 0 mm 3 m/S 754 mmHg 70%
08:00 +20°C° 0 mm 3 m/S 755 mmHg 64%
09:00 +22°C° 0 mm 3 m/S 755 mmHg 61%
10:00 +24°C° 0 mm 3 m/S 755 mmHg 57%
11:00 +26°C° 0 mm 3 m/S 755 mmHg 54%
12:00 +26°C° 0 mm 3 m/S 755 mmHg 53%
13:00 +27°C° 0 mm 3 m/S 755 mmHg 51%
14:00 +27°C° 0 mm 3 m/S 755 mmHg 49%
15:00 +27°C° 0 mm 3 m/S 755 mmHg 51%
16:00 +27°C° 0 mm 3 m/S 755 mmHg 52%
17:00 +27°C° 0 mm 3 m/S 755 mmHg 54%
18:00 +25°C° 0 mm 3 m/S 755 mmHg 61%
19:00 +22°C° 0 mm 3 m/S 755 mmHg 68%
20:00 +20°C° 0 mm 2 m/S 756 mmHg 76%
21:00 +19°C° 0 mm 2 m/S 756 mmHg 79%
22:00 +17°C° 0 mm 2 m/S 756 mmHg 82%
23:00 +16°C° 0 mm 2 m/S 756 mmHg 85%

18 Juni, Freitag

Zeit Temperatur Niederschläge Wind Luftdruck Luftfeuchtigkeit
00:00 +16°C° 0 mm 2 m/S 756 mmHg 87%
01:00 +15°C° 0 mm 2 m/S 756 mmHg 88%
02:00 +15°C° 0 mm 2 m/S 756 mmHg 90%
03:00 +15°C° 0 mm 2 m/S 757 mmHg 90%
04:00 +15°C° 0 mm 2 m/S 757 mmHg 90%
05:00 +15°C° 0 mm 2 m/S 757 mmHg 90%
06:00 +17°C° 0 mm 2 m/S 757 mmHg 82%
07:00 +19°C° 0 mm 3 m/S 757 mmHg 74%
08:00 +21°C° 0 mm 3 m/S 757 mmHg 67%
09:00 +22°C° 0 mm 3 m/S 757 mmHg 61%
10:00 +24°C° 0 mm 3 m/S 757 mmHg 55%
11:00 +26°C° 0 mm 4 m/S 757 mmHg 50%
12:00 +26°C° 0 mm 4 m/S 757 mmHg 49%
13:00 +27°C° 0 mm 4 m/S 757 mmHg 47%
14:00 +27°C° 0 mm 4 m/S 757 mmHg 46%
15:00 +27°C° 0 mm 4 m/S 756 mmHg 48%
16:00 +27°C° 0 mm 3 m/S 756 mmHg 51%
17:00 +27°C° 0 mm 3 m/S 756 mmHg 53%
18:00 +25°C° 0 mm 3 m/S 756 mmHg 61%
19:00 +22°C° 0 mm 3 m/S 756 mmHg 70%
20:00 +20°C° 0 mm 2 m/S 756 mmHg 78%
21:00 +19°C° 0 mm 2 m/S 756 mmHg 82%
22:00 +18°C° 0 mm 3 m/S 756 mmHg 86%
23:00 +17°C° 0 mm 3 m/S 757 mmHg 89%

19 Juni, Samstag

Zeit Temperatur Niederschläge Wind Luftdruck Luftfeuchtigkeit
00:00 +16°C° 0 mm 2 m/S 757 mmHg 91%
01:00 +16°C° 0 mm 2 m/S 757 mmHg 93%
02:00 +15°C° 0 mm 2 m/S 757 mmHg 95%
03:00 +15°C° 0 mm 2 m/S 757 mmHg 95%
04:00 +16°C° 0 mm 2 m/S 757 mmHg 94%
05:00 +16°C° 0 mm 2 m/S 757 mmHg 94%
06:00 +18°C° 0 mm 2 m/S 757 mmHg 86%
07:00 +19°C° 0 mm 3 m/S 757 mmHg 78%
08:00 +21°C° 0 mm 3 m/S 757 mmHg 70%
09:00 +24°C° 0 mm 3 m/S 757 mmHg 64%
10:00 +25°C° 0 mm 4 m/S 757 mmHg 58%
11:00 +26°C° 0 mm 4 m/S 757 mmHg 53%
12:00 +27°C° 0 mm 4 m/S 757 mmHg 51%
13:00 +27°C° 0 mm 4 m/S 756 mmHg 48%
14:00 +28°C° 0 mm 4 m/S 756 mmHg 46%
15:00 +28°C° 0 mm 3 m/S 756 mmHg 49%
16:00 +27°C° 0 mm 3 m/S 756 mmHg 51%
17:00 +27°C° 0 mm 3 m/S 756 mmHg 53%
18:00 +25°C° 0 mm 3 m/S 755 mmHg 61%
19:00 +22°C° 0 mm 3 m/S 755 mmHg 70%
20:00 +21°C° 0 mm 2 m/S 755 mmHg 78%
21:00 +20°C° 0 mm 2 m/S 755 mmHg 80%
22:00 +19°C° 0 mm 2 m/S 755 mmHg 83%
23:00 +18°C° 0 mm 2 m/S 755 mmHg 86%

20 Juni, Sonntag

Zeit Temperatur Niederschläge Wind Luftdruck Luftfeuchtigkeit
00:00 +17°C° 0 mm 2 m/S 756 mmHg 88%
01:00 +17°C° 0 mm 2 m/S 756 mmHg 90%
02:00 +16°C° 0 mm 2 m/S 756 mmHg 92%
03:00 +16°C° 0 mm 2 m/S 756 mmHg 91%
04:00 +17°C° 0 mm 2 m/S 756 mmHg 89%
05:00 +17°C° 0 mm 2 m/S 756 mmHg 88%
06:00 +19°C° 0 mm 2 m/S 756 mmHg 81%
07:00 +21°C° 0 mm 2 m/S 756 mmHg 73%
08:00 +24°C° 0 mm 3 m/S 756 mmHg 65%
09:00 +25°C° 0 mm 3 m/S 755 mmHg 60%
10:00 +26°C° 0 mm 3 m/S 755 mmHg 54%
11:00 +27°C° 0 mm 3 m/S 755 mmHg 48%
12:00 +27°C° 0 mm 3 m/S 755 mmHg 49%
13:00 +27°C° 0 mm 3 m/S 755 mmHg 51%
14:00 +27°C° 0 mm 3 m/S 755 mmHg 53%
15:00 +27°C° 0 mm 3 m/S 754 mmHg 54%
16:00 +26°C° 0 mm 2 m/S 754 mmHg 56%
17:00 +26°C° 0 mm 2 m/S 754 mmHg 57%
18:00 +25°C° 0 mm 2 m/S 754 mmHg 63%
19:00 +23°C° 0 mm 2 m/S 754 mmHg 70%
20:00 +21°C° 0 mm 2 m/S 754 mmHg 76%
21:00 +20°C° 0 mm 2 m/S 754 mmHg 78%
22:00 +19°C° 0 mm 2 m/S 754 mmHg 80%
23:00 +18°C° 0 mm 2 m/S 754 mmHg 82%
Mehr zeigen

Wir brauchen deine Erlaubnis

Meteoprog und unser Service Anbieter werden persönliche Daten aufbewahren, so wie Cookies, Geräte Bezeichnung oder ähnliche Technologien von deinem Gerät und Prozess, so wie Persönliche Daten Inhalte und Werbungen, genauso wie social Media und den Verkehr zu analysieren.

  • Aufbewahrung und/oder Zugang zu deiner Geräte Informationen.

    Cookies, Geräte Bezeichnung oder andere Informationen, können aufbewahrt oder Zugang zu deinem Gerät erhalten, für den Grund, der oben angegeben wird.

  • Personalisierte Werbung und Inhalte, Messungen, Einblick in das Publikum und Produkt Entwicklung.

    Werbungen und Inhalte können personalisiert werden, basierend auf ein Profil. Mehr Daten können besser personalisierte Werbungen und Inhalte hinzufügen. Werbung und Inhalte können gezeigt und gemessen werden. Einblicke über das Publikum, welche die Werbung gesehen haben und den Inhalt, können abgeleitet werden. So wie Daten können genutzt werden, um es zu verbessern oder die Benutzer Erfahrung zu verbessern das System und die Software.

Wenn du “Ich stimme zu” klickst, erlaubst du uns, die Cookies zu benutzen die Geräte Bezeichnung, den Web oder ähnliche Technologien zu benutzen. Deine Settings, können in deinem Gerät bei deinem Browser geändert werden.

Für den bestimmten Zweck, berechtigten Interessen beruhen darauf, mehr als auf den Inhalt. Du kannst mehr darüber in unseren Privaten und Cookie Politik lesen.